| time (UTC) | temp F | wind direction | speed MPH | gust MPH | rain 1hr in | rain 24hr in | rain mn in | humidity % | barometer mb |
| 20260906060027 | 73 | 69 | 2.0 | 8.0 | 0.00 | 0.00 | 0.00 | 87 | 1015.2 |
| 20260906054536 | 73 | 180 | 2.0 | 9.0 | 0.00 | 0.00 | 0.00 | 86 | 1015.3 |
| 20260906053018 | 73 | 189 | 2.0 | 10.0 | 0.00 | 0.00 | 0.00 | 86 | 1015.3 |
| 20260906051516 | 74 | 114 | 2.0 | 8.0 | 0.00 | 0.00 | 0.00 | 87 | 1015.1 |
| 20260906050014 | 74 | 61 | 1.0 | 9.0 | 0.00 | 0.00 | 0.00 | 88 | 1014.9 |
| 20260906044514 | 74 | 96 | 0.0 | 4.0 | 0.00 | 0.00 | 0.00 | 88 | 1014.9 |
| 20260906043017 | 74 | 76 | 0.0 | 3.0 | 0.00 | 0.00 | 0.00 | 88 | 1014.9 |
| 20260906041510 | 74 | 73 | 0.0 | 3.0 | 0.00 | 0.00 | 0.00 | 88 | 1014.5 |
| 20260906040011 | 74 | 50 | 0.0 | 3.0 | 0.00 | 0.00 | 0.00 | 88 | 1014.2 |
| 20260906034514 | 74 | 80 | 0.0 | 0.0 | 0.00 | 0.00 | 0.00 | 88 | 1014.0 |
| 20260906033016 | 74 | 73 | 0.0 | 2.0 | 0.00 | 0.00 | 0.00 | 88 | 1014.0 |
| 20260906031505 | 75 | 78 | 0.0 | 0.0 | 0.00 | 0.00 | 0.00 | 88 | 1013.9 |
| 20260906030001 | 75 | 60 | 0.0 | 0.0 | 0.00 | 0.00 | 0.00 | 87 | 1013.8 |
| 20260906024613 | 75 | 72 | 0.0 | 1.0 | 0.00 | 0.00 | 0.00 | 87 | 1013.6 |
| 20260906023103 | 75 | 105 | 0.0 | 0.0 | 0.00 | 0.00 | 0.00 | 87 | 1013.4 |
| 20260906021556 | 75 | 140 | 0.0 | 0.0 | 0.00 | 0.00 | 0.00 | 87 | 1013.3 |
| 20260906020054 | 75 | 105 | 0.0 | 2.0 | 0.00 | 0.00 | 0.00 | 86 | 1013.1 |
| 20260906014552 | 76 | 165 | 1.0 | 7.0 | 0.00 | 0.00 | 0.00 | 85 | 1012.9 |
| 20260906013051 | 76 | 78 | 2.0 | 8.0 | 0.00 | 0.00 | 0.00 | 85 | 1012.7 |
| 20260906011550 | 77 | 65 | 1.0 | 8.0 | 0.00 | 0.00 | 0.00 | 84 | 1012.6 |
| 20260906010050 | 77 | 97 | 2.0 | 9.0 | 0.00 | 0.00 | 0.00 | 82 | 1012.8 |
| 20260906004549 | 78 | 26 | 2.0 | 9.0 | 0.00 | 0.00 | 0.00 | 82 | 1012.7 |
| 20260906003048 | 79 | 28 | 1.0 | 9.0 | 0.00 | 0.00 | 0.00 | 82 | 1012.8 |
| 20260906001548 | 80 | 70 | 0.0 | 8.0 | 0.00 | 0.00 | 0.00 | 80 | 1012.7 |
| 20260906000047 | 81 | 26 | 1.0 | 6.0 | 0.00 | 0.00 | 0.00 | 80 | 1012.6 |
| 20260905234547 | 81 | 84 | 3.0 | 10.0 | 0.00 | 0.00 | 0.00 | 79 | 1012.4 |
| 20260905233055 | 82 | 103 | 2.0 | 9.0 | 0.00 | 0.00 | 0.00 | 79 | 1012.3 |
| 20260905231546 | 83 | 324 | 3.0 | 12.0 | 0.00 | 0.00 | 0.00 | 80 | 1012.2 |
| 20260905230045 | 83 | 78 | 2.0 | 8.0 | 0.00 | 0.00 | 0.00 | 80 | 1012.2 |
| 20260905224610 | 84 | 274 | 3.0 | 6.0 | 0.00 | 0.00 | 0.00 | 79 | 1012.3 |
| 20260905223046 | 84 | 38 | 2.0 | 8.0 | 0.00 | 0.00 | 0.00 | 78 | 1012.2 |
| 20260905221542 | 85 | 109 | 3.0 | 8.0 | 0.00 | 0.00 | 0.00 | 77 | 1012.1 |
| 20260905220042 | 85 | 342 | 2.0 | 9.0 | 0.00 | 0.00 | 0.00 | 76 | 1011.9 |
| 20260905214547 | 86 | 360 | 1.0 | 6.0 | 0.00 | 0.00 | 0.00 | 76 | 1012.0 |
| 20260905213041 | 87 | 115 | 3.0 | 8.0 | 0.00 | 0.00 | 0.00 | 75 | 1011.9 |
| 20260905211546 | 87 | 311 | 2.0 | 10.0 | 0.00 | 0.00 | 0.00 | 76 | 1011.7 |
| 20260905210049 | 88 | 107 | 2.0 | 6.0 | 0.00 | 0.00 | 0.00 | 76 | 1011.5 |
| 20260905204539 | 89 | 54 | 3.0 | 11.0 | 0.00 | 0.00 | 0.00 | 74 | 1011.6 |
| 20260905203038 | 90 | 261 | 2.0 | 8.0 | 0.00 | 0.00 | 0.00 | 72 | 1011.7 |
| 20260905201535 | 90 | 314 | 3.0 | 10.0 | 0.00 | 0.00 | 0.00 | 71 | 1011.9 |
| 20260905200034 | 91 | 298 | 1.0 | 7.0 | 0.00 | 0.00 | 0.00 | 70 | 1011.8 |
| 20260905194529 | 91 | 57 | 0.0 | 3.0 | 0.00 | 0.00 | 0.00 | 69 | 1011.8 |
| 20260905193027 | 90 | 32 | 2.0 | 9.0 | 0.00 | 0.00 | 0.00 | 70 | 1011.9 |
| 20260905191527 | 90 | 259 | 1.0 | 7.0 | 0.00 | 0.00 | 0.00 | 71 | 1012.0 |
| 20260905190026 | 90 | 23 | 0.0 | 6.0 | 0.00 | 0.00 | 0.00 | 71 | 1012.3 |
| 20260905184530 | 90 | 44 | 1.0 | 4.0 | 0.00 | 0.00 | 0.00 | 70 | 1012.3 |
| 20260905183025 | 90 | 86 | 0.0 | 6.0 | 0.00 | 0.00 | 0.00 | 71 | 1012.2 |
| 20260905181524 | 90 | 45 | 0.0 | 5.0 | 0.00 | 0.00 | 0.00 | 72 | 1012.3 |
| 20260905180025 | 89 | 90 | 1.0 | 5.0 | 0.00 | 0.00 | 0.00 | 72 | 1012.4 |
| 20260905174525 | 90 | 297 | 1.0 | 6.0 | 0.00 | 0.00 | 0.00 | 70 | 1012.5 |
| 20260905173021 | 91 | 76 | 0.0 | 4.0 | 0.00 | 0.00 | 0.00 | 70 | 1012.6 |
| 20260905171520 | 91 | 56 | 1.0 | 7.0 | 0.00 | 0.00 | 0.00 | 69 | 1012.6 |
| 20260905170016 | 90 | 55 | 0.0 | 6.0 | 0.00 | 0.00 | 0.00 | 71 | 1012.8 |
| 20260905164523 | 89 | 180 | 0.0 | 5.0 | 0.00 | 0.00 | 0.00 | 72 | 1012.9 |
| 20260905163012 | 89 | 144 | 1.0 | 8.0 | 0.00 | 0.00 | 0.00 | 70 | 1012.9 |
| 20260905161509 | 89 | 33 | 1.0 | 6.0 | 0.00 | 0.00 | 0.00 | 72 | 1012.8 |
| 20260905160007 | 88 | 61 | 3.0 | 8.0 | 0.00 | 0.00 | 0.00 | 72 | 1012.8 |
| 20260905154504 | 87 | 47 | 3.0 | 8.0 | 0.00 | 0.00 | 0.00 | 74 | 1012.8 |
| 20260905153101 | 87 | 111 | 2.0 | 9.0 | 0.00 | 0.00 | 0.00 | 75 | 1012.8 |
| 20260905151558 | 86 | 348 | 2.0 | 6.0 | 0.00 | 0.00 | 0.00 | 76 | 1012.7 |
| 20260905150100 | 85 | 313 | 2.0 | 8.0 | 0.00 | 0.00 | 0.00 | 76 | 1012.5 |
| 20260905144551 | 84 | 148 | 1.0 | 6.0 | 0.00 | 0.00 | 0.00 | 78 | 1012.4 |
| 20260905143047 | 83 | 27 | 0.0 | 5.0 | 0.00 | 0.00 | 0.00 | 82 | 1012.2 |
| 20260905141544 | 82 | 80 | 1.0 | 4.0 | 0.00 | 0.00 | 0.00 | 85 | 1012.0 |
| 20260905140040 | 81 | 82 | 1.0 | 6.0 | 0.00 | 0.00 | 0.00 | 87 | 1012.0 |
| 20260905134538 | 80 | 72 | 2.0 | 6.0 | 0.00 | 0.00 | 0.00 | 89 | 1012.0 |
| 20260905133040 | 79 | 49 | 1.0 | 5.0 | 0.00 | 0.00 | 0.00 | 90 | 1011.9 |
| 20260905131536 | 78 | 65 | 1.0 | 2.0 | 0.00 | 0.00 | 0.00 | 91 | 1011.8 |
| 20260905130036 | 78 | 309 | 0.0 | 2.0 | 0.00 | 0.00 | 0.00 | 92 | 1011.9 |
| 20260905124535 | 77 | 25 | 0.0 | 1.0 | 0.00 | 0.00 | 0.00 | 93 | 1011.8 |
| 20260905123035 | 76 | 300 | 1.0 | 3.0 | 0.00 | 0.00 | 0.00 | 93 | 1011.6 |
| 20260905121532 | 76 | 306 | 2.0 | 4.0 | 0.00 | 0.00 | 0.00 | 93 | 1011.5 |
| 20260905120029 | 75 | 305 | 1.0 | 2.0 | 0.00 | 0.00 | 0.00 | 93 | 1011.2 |
| 20260905114531 | 75 | 290 | 1.0 | 3.0 | 0.00 | 0.00 | 0.00 | 93 | 1010.9 |
| 20260905113027 | 76 | 303 | 0.0 | 0.0 | 0.00 | 0.00 | 0.00 | 92 | 1010.7 |
| 20260905111526 | 76 | 303 | 0.0 | 1.0 | 0.00 | 0.00 | 0.00 | 92 | 1010.6 |
| 20260905110025 | 76 | 303 | 0.0 | 1.0 | 0.00 | 0.00 | 0.00 | 92 | 1010.6 |
| 20260905104524 | 76 | 303 | 0.0 | 1.0 | 0.00 | 0.00 | 0.00 | 92 | 1010.5 |
| 20260905103023 | 77 | 303 | 0.0 | 1.0 | 0.00 | 0.00 | 0.00 | 91 | 1010.6 |
| 20260905101525 | 77 | 303 | 0.0 | 2.0 | 0.00 | 0.00 | 0.00 | 92 | 1010.6 |
| 20260905100043 | 77 | 312 | 0.0 | 0.0 | 0.00 | 0.00 | 0.00 | 91 | 1010.7 |
| 20260905094521 | 77 | 312 | 0.0 | 3.0 | 0.00 | 0.00 | 0.00 | 91 | 1010.8 |
| 20260905093019 | 77 | 355 | 1.0 | 2.0 | 0.00 | 0.00 | 0.00 | 91 | 1010.7 |
| 20260905091517 | 77 | 355 | 0.0 | 0.0 | 0.00 | 0.00 | 0.00 | 91 | 1010.7 |
| 20260905090016 | 78 | 355 | 0.0 | 0.0 | 0.00 | 0.00 | 0.00 | 91 | 1010.8 |
| 20260905084514 | 78 | 355 | 0.0 | 0.0 | 0.00 | 0.00 | 0.00 | 91 | 1010.8 |
| 20260905083012 | 78 | 355 | 0.0 | 0.0 | 0.00 | 0.00 | 0.00 | 90 | 1011.0 |
| 20260905081511 | 78 | 355 | 0.0 | 0.0 | 0.00 | 0.00 | 0.00 | 90 | 1011.0 |
| 20260905080109 | 78 | 355 | 0.0 | 2.0 | 0.00 | 0.00 | 0.00 | 89 | 1011.1 |
| 20260905074510 | 79 | 81 | 0.0 | 0.0 | 0.00 | 0.00 | 0.00 | 89 | 1011.0 |
| 20260905073009 | 79 | 81 | 0.0 | 1.0 | 0.00 | 0.00 | 0.00 | 89 | 1011.0 |
| 20260905071506 | 79 | 81 | 0.0 | 0.0 | 0.00 | 0.00 | 0.00 | 90 | 1011.1 |
| 20260905070005 | 79 | 81 | 0.0 | 0.0 | 0.00 | 0.00 | 0.00 | 89 | 1011.1 |
| 20260905064508 | 79 | 81 | 0.0 | 0.0 | 0.00 | 0.00 | 0.00 | 89 | 1011.0 |
| 20260905063003 | 79 | 81 | 0.0 | 0.0 | 0.00 | 0.00 | 0.00 | 88 | 1011.0 |
| 20260905061502 | 80 | 81 | 0.0 | 0.0 | 0.00 | 0.00 | 0.00 | 87 | 1011.0 |